SWRD12 YAMB-YAMB

Flight info

Callsign SWRD12
Flight time 2h 3m
Altitude 21000
Route YAMB YAMB
Aircraft F18S/M-V/N

Departure

Time 2026-04-16 03:23
Airport RAAF Base Amberley (YAMB)

Arrival

Time 2026-04-16 05:26
Airport RAAF Base Amberley (YAMB)
Time Latitude Longitude Altitude Speed Heading
2026-04-16 03:09 -27.63045 152.70498 99 ft 0 kts 122°
2026-04-16 03:10 -27.63045 152.70497 99 ft 0 kts 122°
2026-04-16 03:16 -27.63045 152.70498 99 ft 0 kts 122°
2026-04-16 03:16 -27.63051 152.70507 99 ft 5 kts 124°
2026-04-16 03:16 -27.63053 152.70577 98 ft 9 kts 77°
2026-04-16 03:16 -27.63075 152.70630 97 ft 8 kts 151°
2026-04-16 03:17 -27.63119 152.70650 96 ft 6 kts 159°
2026-04-16 03:17 -27.63155 152.70667 96 ft 5 kts 158°
2026-04-16 03:17 -27.63170 152.70727 95 ft 12 kts 109°
2026-04-16 03:17 -27.63249 152.70781 96 ft 13 kts 155°
2026-04-16 03:18 -27.63326 152.70818 95 ft 11 kts 158°
2026-04-16 03:18 -27.63397 152.70849 94 ft 11 kts 159°
2026-04-16 03:18 -27.63490 152.70888 97 ft 19 kts 159°
2026-04-16 03:18 -27.63637 152.70953 96 ft 27 kts 159°
2026-04-16 03:19 -27.63838 152.71043 99 ft 34 kts 160°
2026-04-16 03:19 -27.64059 152.71138 101 ft 32 kts 160°
2026-04-16 03:19 -27.64260 152.71228 99 ft 30 kts 156°
2026-04-16 03:19 -27.64447 152.71309 96 ft 28 kts 158°
2026-04-16 03:20 -27.64618 152.71385 96 ft 26 kts 155°
2026-04-16 03:20 -27.64755 152.71473 97 ft 15 kts 113°
2026-04-16 03:20 -27.64750 152.71570 98 ft 11 kts 66°
2026-04-16 03:20 -27.64715 152.71638 99 ft 8 kts 28°
2026-04-16 03:21 -27.64665 152.71629 99 ft 7 kts 341°
2026-04-16 03:21 -27.64609 152.71604 98 ft 12 kts 339°
2026-04-16 03:21 -27.64591 152.71596 98 ft 0 kts 339°
2026-04-16 03:23 -27.64253 152.71447 97 ft 143 kts 338°
2026-04-16 03:23 -27.62749 152.70785 437 ft 301 kts 339°
2026-04-16 03:23 -27.60596 152.69805 1690 ft 354 kts 338°
2026-04-16 03:23 -27.58239 152.68687 3598 ft 379 kts 337°
2026-04-16 03:24 -27.55763 152.67478 5456 ft 395 kts 336°
2026-04-16 03:24 -27.52977 152.67059 6304 ft 429 kts 12°
2026-04-16 03:24 -27.50637 152.69189 6747 ft 455 kts 54°
2026-04-16 03:24 -27.48215 152.70542 8030 ft 360 kts 13°
2026-04-16 03:25 -27.45742 152.71212 9433 ft 354 kts 10°
2026-04-16 03:25 -27.43328 152.71735 10728 ft 348 kts
2026-04-16 03:25 -27.41154 152.72235 11239 ft 293 kts
2026-04-16 03:25 -27.39340 152.72709 13359 ft 196 kts 11°
2026-04-16 03:26 -27.37913 152.73188 16385 ft 245 kts 11°
2026-04-16 03:26 -27.36205 152.73778 18783 ft 254 kts 11°
2026-04-16 03:26 -27.34210 152.74501 19406 ft 334 kts 18°
2026-04-16 03:26 -27.32264 152.76242 19622 ft 386 kts 49°
2026-04-16 03:27 -27.31052 152.79123 19991 ft 449 kts 74°
2026-04-16 03:27 -27.30409 152.82902 19862 ft 514 kts 80°
2026-04-16 03:27 -27.29783 152.86784 19520 ft 506 kts 80°
2026-04-16 03:27 -27.29177 152.90616 19509 ft 490 kts 80°
2026-04-16 03:28 -27.28601 152.94343 19493 ft 480 kts 81°
2026-04-16 03:28 -27.28265 152.98040 19606 ft 479 kts 88°
2026-04-16 03:28 -27.28094 153.01852 19536 ft 497 kts 88°
2026-04-16 03:28 -27.27927 153.05960 19719 ft 554 kts 88°
2026-04-16 03:29 -27.27767 153.10500 19970 ft 608 kts 88°
2026-04-16 03:29 -27.27427 153.15365 20465 ft 642 kts 83°
2026-04-16 03:29 -27.26758 153.20410 20805 ft 665 kts 82°
2026-04-16 03:29 -27.25812 153.25634 20203 ft 699 kts 72°
2026-04-16 03:30 -27.23723 153.30605 19927 ft 711 kts 55°
2026-04-16 03:30 -27.20028 153.34202 20352 ft 703 kts 25°
2026-04-16 03:30 -27.15417 153.35845 20515 ft 699 kts 12°
2026-04-16 03:30 -27.10956 153.37169 20460 ft 592 kts 12°
2026-04-16 03:31 -27.07737 153.39231 20341 ft 513 kts 46°
2026-04-16 03:31 -27.05312 153.42040 20094 ft 481 kts 42°
2026-04-16 03:31 -27.03007 153.44637 19538 ft 464 kts 43°
2026-04-16 03:31 -27.00631 153.47225 19478 ft 488 kts 41°
2026-04-16 03:32 -26.98210 153.49911 20241 ft 488 kts 44°
2026-04-16 03:32 -26.95847 153.52704 20717 ft 502 kts 44°
2026-04-16 03:34 -26.81779 153.69390 21188 ft 392 kts 44°
2026-04-16 03:34 -26.79637 153.71251 21031 ft 396 kts 22°
2026-04-16 03:34 -26.76937 153.72069 20127 ft 412 kts 360°
2026-04-16 03:34 -26.74087 153.71741 19795 ft 410 kts 344°
2026-04-16 03:35 -26.71156 153.71108 20027 ft 465 kts 345°
2026-04-16 03:35 -26.67677 153.70376 21017 ft 554 kts 345°
2026-04-16 03:35 -26.63626 153.69563 22667 ft 619 kts 348°
2026-04-16 03:35 -26.59143 153.69140 24404 ft 686 kts 351°
2026-04-16 03:36 -26.54085 153.68762 24961 ft 739 kts 353°
2026-04-16 03:36 -26.49236 153.68880 25400 ft 659 kts 359°
2026-04-16 03:36 -26.44801 153.69292 24906 ft 631 kts
2026-04-16 03:36 -26.40540 153.69998 24419 ft 611 kts
2026-04-16 03:37 -26.36405 153.70761 24289 ft 594 kts
2026-04-16 03:37 -26.32427 153.71675 24566 ft 580 kts
2026-04-16 03:37 -26.28545 153.72849 24552 ft 576 kts 11°
2026-04-16 03:37 -26.24834 153.74051 24478 ft 499 kts 11°
2026-04-16 03:38 -26.21573 153.75154 24436 ft 502 kts 12°
2026-04-16 03:38 -26.18118 153.76379 24435 ft 532 kts 13°
2026-04-16 03:38 -26.14683 153.77588 24439 ft 506 kts 12°
2026-04-16 03:38 -26.11294 153.78774 24455 ft 521 kts 12°
2026-04-16 03:39 -26.07890 153.79969 24458 ft 499 kts 12°
2026-04-16 03:39 -26.04574 153.81138 24445 ft 498 kts 12°
2026-04-16 03:39 -26.01259 153.82300 24441 ft 499 kts 12°
2026-04-16 03:39 -25.97951 153.83456 24443 ft 501 kts 12°
2026-04-16 03:40 -25.94619 153.84624 24449 ft 497 kts 12°
2026-04-16 03:40 -25.91325 153.85773 24438 ft 497 kts 12°
2026-04-16 03:40 -25.88113 153.87072 24441 ft 496 kts 17°
2026-04-16 03:40 -25.84955 153.88613 24316 ft 495 kts 19°
2026-04-16 03:41 -25.81830 153.90200 24229 ft 495 kts 20°
2026-04-16 03:41 -25.78740 153.91891 24298 ft 487 kts 22°
2026-04-16 03:41 -25.75686 153.93595 24320 ft 505 kts 21°
2026-04-16 03:41 -25.72257 153.95432 24467 ft 577 kts 21°
2026-04-16 03:42 -25.68972 153.97191 24456 ft 495 kts 21°
2026-04-16 03:42 -25.65849 153.98881 24443 ft 509 kts 21°
2026-04-16 03:42 -25.62610 154.00590 23357 ft 525 kts 21°
2026-04-16 03:42 -25.59220 154.02176 22983 ft 528 kts 16°
2026-04-16 03:43 -25.55733 154.03337 22730 ft 521 kts 10°
2026-04-16 03:43 -25.52391 154.04358 22589 ft 460 kts 11°
2026-04-16 03:43 -25.49371 154.05220 22644 ft 449 kts
2026-04-16 03:43 -25.46286 154.06008 22772 ft 459 kts
2026-04-16 03:44 -25.43143 154.06800 22718 ft 470 kts
2026-04-16 03:44 -25.39915 154.07661 22673 ft 486 kts
2026-04-16 03:44 -25.37722 154.08255 22699 ft 493 kts
2026-04-16 03:44 -25.34349 154.09153 22723 ft 501 kts
2026-04-16 03:45 -25.29857 154.10470 22679 ft 503 kts 11°
2026-04-16 03:45 -25.26514 154.11491 22624 ft 493 kts 11°
2026-04-16 03:45 -25.23242 154.12500 22568 ft 485 kts 11°
2026-04-16 03:45 -25.20012 154.13492 22515 ft 478 kts 11°
2026-04-16 03:46 -25.16801 154.14293 22459 ft 469 kts
2026-04-16 03:46 -25.13585 154.14690 22406 ft 463 kts
2026-04-16 03:46 -25.11425 154.14930 22369 ft 456 kts
2026-04-16 03:46 -25.08361 154.15534 22286 ft 438 kts 13°
2026-04-16 03:47 -25.05655 154.16584 22063 ft 389 kts 14°
2026-04-16 03:47 -25.03211 154.17415 21854 ft 350 kts 11°
2026-04-16 03:47 -25.00944 154.18159 21696 ft 341 kts 11°
2026-04-16 03:47 -24.98641 154.18907 21566 ft 346 kts 10°
2026-04-16 03:48 -24.96306 154.19633 21591 ft 361 kts 10°
2026-04-16 03:48 -24.93846 154.20334 21730 ft 369 kts
2026-04-16 03:48 -24.91353 154.21111 21915 ft 375 kts 10°
2026-04-16 03:48 -24.88800 154.21853 21915 ft 385 kts
2026-04-16 03:49 -24.86185 154.22575 22031 ft 389 kts
2026-04-16 03:49 -24.83527 154.23325 22210 ft 404 kts
2026-04-16 03:49 -24.80658 154.24087 22250 ft 443 kts
2026-04-16 03:49 -24.77862 154.24927 22118 ft 380 kts 10°
2026-04-16 03:50 -24.75481 154.25636 22095 ft 334 kts
2026-04-16 03:50 -24.73179 154.26332 22098 ft 348 kts
2026-04-16 03:50 -24.70909 154.26989 22072 ft 332 kts
2026-04-16 03:50 -24.68664 154.27082 22071 ft 316 kts 347°
2026-04-16 03:51 -24.66609 154.26468 22075 ft 302 kts 329°
2026-04-16 03:51 -24.64822 154.25206 22078 ft 306 kts 314°
2026-04-16 03:51 -24.63452 154.23457 22099 ft 296 kts 300°
2026-04-16 03:51 -24.62841 154.21725 21972 ft 234 kts 288°
2026-04-16 03:52 -24.62390 154.19759 21902 ft 305 kts 269°
2026-04-16 03:52 -24.62574 154.17438 21967 ft 280 kts 257°
2026-04-16 03:52 -24.63241 154.15565 22050 ft 254 kts 246°
2026-04-16 03:52 -24.64391 154.14002 22125 ft 267 kts 231°
2026-04-16 03:53 -24.65871 154.12613 21884 ft 301 kts 211°
2026-04-16 03:53 -24.67845 154.11675 22035 ft 323 kts 201°
2026-04-16 03:53 -24.70089 154.11485 22009 ft 325 kts 181°
2026-04-16 03:53 -24.72226 154.12026 22048 ft 308 kts 164°
2026-04-16 03:54 -24.74232 154.12858 22065 ft 315 kts 167°
2026-04-16 03:54 -24.76392 154.13700 22100 ft 341 kts 167°
2026-04-16 03:54 -24.78524 154.14533 22107 ft 324 kts 167°
2026-04-16 03:54 -24.80643 154.15372 22109 ft 323 kts 167°
2026-04-16 03:55 -24.82347 154.16053 22141 ft 300 kts 167°
2026-04-16 03:55 -24.82550 154.16136 22144 ft 292 kts 167°
2026-04-16 03:55 -24.84605 154.16981 22109 ft 348 kts 167°
2026-04-16 03:55 -24.86721 154.17821 22100 ft 324 kts 167°
2026-04-16 03:56 -24.88859 154.18672 22106 ft 325 kts 167°
2026-04-16 03:56 -24.90958 154.19510 22108 ft 321 kts 167°
2026-04-16 03:56 -24.93027 154.20342 22109 ft 314 kts 167°
2026-04-16 03:56 -24.95116 154.21181 22107 ft 317 kts 167°
2026-04-16 03:57 -24.97194 154.22018 22103 ft 310 kts 167°
2026-04-16 03:57 -24.99275 154.22853 22106 ft 314 kts 166°
2026-04-16 03:57 -25.01321 154.23682 22101 ft 317 kts 167°
2026-04-16 03:57 -25.03339 154.24751 22086 ft 327 kts 153°
2026-04-16 03:58 -25.04959 154.26557 22069 ft 342 kts 131°
2026-04-16 03:58 -25.05921 154.28966 22069 ft 348 kts 107°
2026-04-16 03:58 -25.06024 154.31640 22067 ft 350 kts 83°
2026-04-16 03:58 -25.05230 154.34243 22078 ft 365 kts 60°
2026-04-16 03:59 -25.03711 154.36268 22066 ft 333 kts 36°
2026-04-16 03:59 -25.01792 154.37450 22069 ft 302 kts 12°
2026-04-16 03:59 -24.99776 154.37761 22050 ft 282 kts 353°
2026-04-16 03:59 -24.97933 154.37452 22081 ft 254 kts 335°
2026-04-16 04:00 -24.96417 154.36748 21917 ft 233 kts 322°
2026-04-16 04:00 -24.95098 154.35720 21413 ft 228 kts 313°
2026-04-16 04:00 -24.93947 154.34485 20959 ft 232 kts 306°
2026-04-16 04:00 -24.92838 154.33227 20654 ft 250 kts 314°
2026-04-16 04:01 -24.91058 154.32514 20975 ft 278 kts 344°
2026-04-16 04:01 -24.89098 154.32476 21363 ft 300 kts 353°
2026-04-16 04:01 -24.86964 154.32396 21765 ft 295 kts 348°
2026-04-16 04:01 -24.84843 154.31999 22109 ft 305 kts 340°
2026-04-16 04:02 -24.82805 154.31389 22097 ft 331 kts 336°
2026-04-16 04:02 -24.80551 154.30524 22102 ft 351 kts 334°
2026-04-16 04:02 -24.78155 154.29553 22107 ft 375 kts 334°
2026-04-16 04:02 -24.75663 154.28534 22127 ft 384 kts 334°
2026-04-16 04:03 -24.73055 154.27483 22101 ft 419 kts 334°
2026-04-16 04:03 -24.70266 154.26336 22134 ft 431 kts 333°
2026-04-16 04:03 -24.67624 154.24692 22137 ft 438 kts 320°
2026-04-16 04:03 -24.65329 154.22380 22178 ft 441 kts 308°
2026-04-16 04:04 -24.63637 154.19837 22143 ft 429 kts 296°
2026-04-16 04:04 -24.62252 154.16492 22046 ft 505 kts 287°
2026-04-16 04:04 -24.61638 154.13128 22201 ft 431 kts 275°
2026-04-16 04:04 -24.61436 154.09563 23024 ft 514 kts 269°
2026-04-16 04:05 -24.62024 154.05506 23979 ft 502 kts 252°
2026-04-16 04:05 -24.63049 154.02537 22493 ft 363 kts 236°
2026-04-16 04:05 -24.64882 154.00886 21678 ft 339 kts 217°
2026-04-16 04:05 -24.67063 153.99590 21617 ft 375 kts 206°
2026-04-16 04:06 -24.69748 153.98715 21754 ft 413 kts 194°
2026-04-16 04:06 -24.72706 153.98780 22335 ft 450 kts 174°
2026-04-16 04:06 -24.75251 153.99973 22195 ft 359 kts 148°
2026-04-16 04:06 -24.76833 154.01744 22208 ft 331 kts 131°
2026-04-16 04:07 -24.77925 154.04138 22192 ft 345 kts 117°
2026-04-16 04:07 -24.79837 154.08903 22100 ft 375 kts 121°
2026-04-16 04:07 -24.80875 154.11333 22100 ft 347 kts 119°
2026-04-16 04:08 -24.82031 154.13673 22130 ft 355 kts 129°
2026-04-16 04:08 -24.83742 154.15686 22140 ft 366 kts 145°
2026-04-16 04:08 -24.85898 154.17227 22120 ft 364 kts 158°
2026-04-16 04:08 -24.88180 154.18410 22107 ft 360 kts 163°
2026-04-16 04:09 -24.90527 154.19410 22114 ft 361 kts 165°
2026-04-16 04:09 -24.92813 154.20331 22107 ft 352 kts 166°
2026-04-16 04:09 -24.95209 154.21258 22112 ft 365 kts 166°
2026-04-16 04:09 -24.97583 154.22187 22111 ft 360 kts 166°
2026-04-16 04:10 -24.99946 154.23124 22110 ft 362 kts 166°
2026-04-16 04:10 -25.02281 154.24080 22083 ft 347 kts 162°
2026-04-16 04:10 -25.04374 154.25636 22060 ft 379 kts 142°
2026-04-16 04:10 -25.05924 154.27926 22134 ft 403 kts 121°
2026-04-16 04:11 -25.06793 154.30785 22273 ft 394 kts 104°
2026-04-16 04:11 -25.06739 154.33745 22173 ft 387 kts 80°
2026-04-16 04:11 -25.05809 154.36601 22136 ft 401 kts 60°
2026-04-16 04:11 -25.04133 154.38929 22137 ft 387 kts 39°
2026-04-16 04:12 -25.01903 154.40503 22139 ft 380 kts 18°
2026-04-16 04:12 -24.99351 154.41156 22135 ft 376 kts 358°
2026-04-16 04:12 -24.96874 154.40802 22131 ft 352 kts 337°
2026-04-16 04:12 -24.94775 154.39550 22137 ft 336 kts 316°
2026-04-16 04:13 -24.93140 154.37708 22102 ft 338 kts 308°
2026-04-16 04:13 -24.91481 154.35960 22100 ft 343 kts 314°
2026-04-16 04:13 -24.89516 154.34471 22102 ft 348 kts 324°
2026-04-16 04:13 -24.87371 154.33297 22105 ft 344 kts 331°
2026-04-16 04:14 -24.85108 154.32284 22118 ft 350 kts 333°
2026-04-16 04:14 -24.82842 154.31369 22101 ft 355 kts 334°
2026-04-16 04:14 -24.80544 154.30464 22105 ft 357 kts 335°
2026-04-16 04:14 -24.78275 154.29571 22098 ft 360 kts 334°
2026-04-16 04:15 -24.75968 154.28659 22104 ft 360 kts 334°
2026-04-16 04:15 -24.73674 154.27748 22104 ft 352 kts 334°
2026-04-16 04:15 -24.71495 154.26886 22048 ft 327 kts 334°
2026-04-16 04:15 -24.69386 154.25627 22122 ft 359 kts 320°
2026-04-16 04:16 -24.67691 154.23758 22116 ft 344 kts 304°
2026-04-16 04:16 -24.66602 154.21567 22121 ft 330 kts 288°
2026-04-16 04:16 -24.66118 154.19133 22123 ft 318 kts 274°
2026-04-16 04:16 -24.66254 154.16656 22117 ft 327 kts 259°
2026-04-16 04:17 -24.66987 154.14349 22119 ft 323 kts 245°
2026-04-16 04:17 -24.68257 154.12356 22107 ft 308 kts 228°
2026-04-16 04:17 -24.69984 154.10767 22139 ft 326 kts 215°
2026-04-16 04:17 -24.72210 154.09732 22129 ft 348 kts 200°
2026-04-16 04:18 -24.74618 154.09444 22145 ft 355 kts 183°
2026-04-16 04:18 -24.77035 154.09957 22122 ft 364 kts 167°
2026-04-16 04:18 -24.79396 154.10909 22108 ft 361 kts 165°
2026-04-16 04:18 -24.81760 154.11863 22112 ft 354 kts 165°
2026-04-16 04:19 -24.84091 154.12804 22097 ft 365 kts 165°
2026-04-16 04:19 -24.86454 154.13756 22101 ft 369 kts 165°
2026-04-16 04:19 -24.88821 154.14708 22110 ft 369 kts 166°
2026-04-16 04:19 -24.91188 154.15655 22103 ft 364 kts 166°
2026-04-16 04:20 -24.93556 154.16603 22116 ft 355 kts 166°
2026-04-16 04:20 -24.95914 154.17554 22107 ft 362 kts 166°
2026-04-16 04:20 -24.98269 154.18502 22110 ft 366 kts 165°
2026-04-16 04:20 -25.00636 154.19450 22108 ft 362 kts 166°
2026-04-16 04:21 -25.02986 154.20395 22110 ft 363 kts 166°
2026-04-16 04:21 -25.05335 154.21341 22107 ft 364 kts 165°
2026-04-16 04:21 -25.07654 154.22417 22101 ft 344 kts 159°
2026-04-16 04:21 -25.09661 154.24213 22139 ft 389 kts 138°
2026-04-16 04:22 -25.11071 154.26644 22129 ft 382 kts 117°
2026-04-16 04:22 -25.11715 154.29560 22127 ft 404 kts 96°
2026-04-16 04:22 -25.11447 154.32605 22150 ft 397 kts 75°
2026-04-16 04:22 -25.11123 154.34702 18856 ft 262 kts 90°
2026-04-16 04:23 -25.10992 154.35967 19933 ft 176 kts 78°
2026-04-16 04:23 -25.10034 154.37566 19199 ft 270 kts 48°
2026-04-16 04:23 -25.08674 154.39014 19112 ft 289 kts 29°
2026-04-16 04:23 -25.06559 154.39818 19745 ft 386 kts
2026-04-16 04:24 -25.03487 154.39868 20961 ft 489 kts 350°
2026-04-16 04:24 -24.99962 154.38859 23133 ft 575 kts 339°
2026-04-16 04:24 -24.95813 154.37261 22131 ft 711 kts 335°
2026-04-16 04:24 -24.92311 154.35406 22403 ft 0 kts 317°
2026-04-16 04:25 -24.90195 154.33688 22513 ft 427 kts 331°
2026-04-16 04:25 -24.87722 154.33518 22025 ft 325 kts 331°
2026-04-16 04:25 -24.85569 154.32582 22051 ft 350 kts 335°
2026-04-16 04:25 -24.83198 154.31614 22005 ft 391 kts 334°
2026-04-16 04:26 -24.80740 154.30615 22169 ft 345 kts 336°
2026-04-16 04:26 -24.78438 154.29694 22170 ft 332 kts 334°
2026-04-16 04:26 -24.76303 154.28889 22159 ft 328 kts 335°
2026-04-16 04:26 -24.74104 154.28021 22220 ft 349 kts 334°
2026-04-16 04:27 -24.71769 154.26995 22167 ft 373 kts 334°
2026-04-16 04:27 -24.69517 154.25783 22254 ft 356 kts 327°
2026-04-16 04:27 -24.68070 154.25678 24149 ft 139 kts 322°
2026-04-16 04:27 -24.67318 154.24733 23467 ft 239 kts 284°
2026-04-16 04:28 -24.67035 154.22351 23256 ft 381 kts 275°
2026-04-16 04:28 -24.66776 154.19071 24062 ft 455 kts 263°
2026-04-16 04:28 -24.68536 154.16417 24714 ft 442 kts 214°
2026-04-16 04:28 -24.71351 154.15263 24745 ft 431 kts 206°
2026-04-16 04:29 -24.73854 154.14016 26020 ft 347 kts 213°
2026-04-16 04:29 -24.75950 154.12847 26566 ft 332 kts 213°
2026-04-16 04:29 -24.78157 154.11976 26403 ft 359 kts 198°
2026-04-16 04:29 -24.80550 154.11920 28129 ft 333 kts 185°
2026-04-16 04:30 -24.82886 154.12288 29149 ft 348 kts 180°
2026-04-16 04:30 -24.85417 154.12691 28580 ft 377 kts 182°
2026-04-16 04:30 -24.88010 154.13039 27525 ft 380 kts 182°
2026-04-16 04:30 -24.90622 154.13366 26440 ft 377 kts 181°
2026-04-16 04:31 -24.93253 154.13673 25929 ft 364 kts 181°
2026-04-16 04:31 -24.94867 154.13870 26266 ft 336 kts 182°
2026-04-16 04:31 -24.97949 154.14252 25450 ft 340 kts 182°
2026-04-16 04:31 -24.99519 154.14403 24997 ft 343 kts 183°
2026-04-16 04:32 -25.01923 154.14577 24641 ft 334 kts 184°
2026-04-16 04:32 -25.04205 154.14729 24339 ft 329 kts 183°
2026-04-16 04:32 -25.06522 154.14936 22956 ft 353 kts 181°
2026-04-16 04:32 -25.09002 154.15206 22465 ft 342 kts 180°
2026-04-16 04:33 -25.11138 154.15397 23406 ft 292 kts 184°
2026-04-16 04:33 -25.13246 154.15539 22723 ft 306 kts 183°
2026-04-16 04:33 -25.15326 154.15688 22541 ft 301 kts 183°
2026-04-16 04:33 -25.17442 154.15811 22105 ft 305 kts 185°
2026-04-16 04:34 -25.19592 154.15827 21269 ft 319 kts 186°
2026-04-16 04:34 -25.21810 154.15793 20973 ft 313 kts 186°
2026-04-16 04:34 -25.23965 154.15708 20846 ft 303 kts 188°
2026-04-16 04:34 -25.26040 154.15604 20643 ft 301 kts 188°
2026-04-16 04:35 -25.28174 154.15465 20057 ft 310 kts 188°
2026-04-16 04:35 -25.30333 154.15286 19675 ft 311 kts 189°
2026-04-16 04:35 -25.32485 154.15027 19381 ft 306 kts 191°
2026-04-16 04:35 -25.34562 154.14765 19406 ft 295 kts 191°
2026-04-16 04:36 -25.36575 154.14518 19416 ft 288 kts 191°
2026-04-16 04:36 -25.38565 154.14277 19420 ft 304 kts 191°
2026-04-16 04:36 -25.40981 154.13933 19432 ft 395 kts 191°
2026-04-16 04:36 -25.43895 154.13492 19936 ft 444 kts 191°
2026-04-16 04:37 -25.47111 154.12996 20150 ft 474 kts 191°
2026-04-16 04:37 -25.50289 154.12520 20149 ft 449 kts 191°
2026-04-16 04:37 -25.53320 154.12082 20142 ft 431 kts 191°
2026-04-16 04:37 -25.56258 154.11667 20136 ft 420 kts 191°
2026-04-16 04:38 -25.59130 154.11266 20132 ft 413 kts 191°
2026-04-16 04:38 -25.61938 154.10773 20129 ft 405 kts 194°
2026-04-16 04:38 -25.64694 154.10181 20127 ft 402 kts 194°
2026-04-16 04:38 -25.67430 154.09590 20128 ft 400 kts 195°
2026-04-16 04:39 -25.70155 154.09001 20125 ft 398 kts 195°
2026-04-16 04:39 -25.72868 154.08414 20128 ft 397 kts 195°
2026-04-16 04:39 -25.75578 154.07828 20131 ft 396 kts 195°
2026-04-16 04:39 -25.78249 154.07250 20129 ft 396 kts 195°
2026-04-16 04:40 -25.80951 154.06665 20129 ft 396 kts 195°
2026-04-16 04:40 -25.83653 154.06080 20134 ft 396 kts 195°
2026-04-16 04:40 -25.86353 154.05497 20134 ft 395 kts 195°
2026-04-16 04:40 -25.89056 154.04912 20133 ft 395 kts 195°
2026-04-16 04:41 -25.91748 154.04328 20132 ft 395 kts 195°
2026-04-16 04:41 -25.94455 154.03736 20132 ft 395 kts 195°
2026-04-16 04:41 -25.97148 154.03150 20136 ft 395 kts 195°
2026-04-16 04:41 -25.99843 154.02566 20137 ft 395 kts 195°
2026-04-16 04:42 -26.02548 154.01980 20137 ft 395 kts 195°
2026-04-16 04:42 -26.05250 154.01396 20137 ft 395 kts 195°
2026-04-16 04:42 -26.07947 154.00814 20134 ft 395 kts 195°
2026-04-16 04:42 -26.10642 154.00232 20137 ft 395 kts 195°
2026-04-16 04:43 -26.13343 153.99650 20137 ft 395 kts 195°
2026-04-16 04:43 -26.16039 153.99070 20137 ft 395 kts 195°
2026-04-16 04:43 -26.18742 153.98488 20136 ft 395 kts 195°
2026-04-16 04:43 -26.21441 153.97908 20137 ft 395 kts 195°
2026-04-16 04:44 -26.24139 153.97328 20136 ft 395 kts 195°
2026-04-16 04:44 -26.26840 153.96747 20136 ft 395 kts 195°
2026-04-16 04:44 -26.29535 153.96168 20137 ft 395 kts 195°
2026-04-16 04:44 -26.32236 153.95588 20137 ft 395 kts 195°
2026-04-16 04:45 -26.34935 153.95008 20136 ft 395 kts 195°
2026-04-16 04:45 -26.37628 153.94430 20138 ft 395 kts 195°
2026-04-16 04:45 -26.40334 153.93851 20135 ft 395 kts 195°
2026-04-16 04:45 -26.42999 153.93280 20136 ft 395 kts 195°
2026-04-16 04:46 -26.45700 153.92701 20137 ft 395 kts 195°
2026-04-16 04:46 -26.48400 153.92122 20138 ft 395 kts 195°
2026-04-16 04:46 -26.51101 153.91544 20137 ft 395 kts 195°
2026-04-16 04:46 -26.53805 153.90965 20135 ft 395 kts 195°
2026-04-16 04:47 -26.56502 153.90388 20136 ft 395 kts 195°
2026-04-16 04:47 -26.59203 153.89810 20132 ft 395 kts 195°
2026-04-16 04:47 -26.61943 153.89220 19641 ft 407 kts 195°
2026-04-16 04:47 -26.64759 153.88606 19108 ft 416 kts 194°
2026-04-16 04:48 -26.67611 153.87970 18737 ft 418 kts 195°
2026-04-16 04:48 -26.70429 153.87327 18362 ft 420 kts 195°
2026-04-16 04:48 -26.73295 153.86661 17897 ft 422 kts 195°
2026-04-16 04:48 -26.76167 153.85985 17441 ft 422 kts 195°
2026-04-16 04:49 -26.79017 153.85310 17420 ft 413 kts 195°
2026-04-16 04:49 -26.81809 153.84648 17435 ft 408 kts 195°
2026-04-16 04:49 -26.84574 153.83994 17431 ft 404 kts 195°
2026-04-16 04:49 -26.87317 153.83346 17431 ft 402 kts 195°
2026-04-16 04:50 -26.90039 153.82668 17425 ft 398 kts 199°
2026-04-16 04:50 -26.92257 153.80970 17390 ft 386 kts 232°
2026-04-16 04:50 -26.93830 153.78554 17410 ft 385 kts 236°
2026-04-16 04:50 -26.95396 153.76123 17418 ft 383 kts 236°
2026-04-16 04:51 -26.96949 153.73707 17420 ft 382 kts 236°
2026-04-16 04:51 -26.98500 153.71290 17418 ft 381 kts 236°
2026-04-16 04:51 -27.00050 153.68875 17421 ft 381 kts 236°
2026-04-16 04:51 -27.01598 153.66464 17422 ft 381 kts 236°
2026-04-16 04:52 -27.03148 153.64051 17421 ft 380 kts 236°
2026-04-16 04:52 -27.04816 153.61753 17413 ft 382 kts 227°
2026-04-16 04:52 -27.06884 153.59855 17413 ft 383 kts 221°
2026-04-16 04:52 -27.08973 153.57996 17422 ft 383 kts 221°
2026-04-16 04:53 -27.11059 153.56134 17421 ft 383 kts 221°
2026-04-16 04:53 -27.13152 153.54266 17426 ft 384 kts 221°
2026-04-16 04:53 -27.15236 153.52404 17426 ft 384 kts 221°
2026-04-16 04:53 -27.17328 153.50536 17425 ft 384 kts 221°
2026-04-16 04:54 -27.19415 153.48672 17424 ft 384 kts 221°
2026-04-16 04:54 -27.21478 153.46829 17422 ft 384 kts 221°
2026-04-16 04:54 -27.23570 153.44959 17420 ft 384 kts 221°
2026-04-16 04:54 -27.25662 153.43091 17418 ft 384 kts 221°
2026-04-16 04:55 -27.27747 153.41227 17415 ft 384 kts 221°
2026-04-16 04:55 -27.29836 153.39360 17412 ft 384 kts 221°
2026-04-16 04:55 -27.31930 153.37488 17414 ft 384 kts 221°
2026-04-16 04:55 -27.34019 153.35621 17413 ft 384 kts 221°
2026-04-16 04:56 -27.36112 153.33750 17407 ft 384 kts 221°
2026-04-16 04:56 -27.38202 153.31882 17404 ft 384 kts 221°
2026-04-16 04:56 -27.40294 153.30012 17406 ft 384 kts 221°
2026-04-16 04:56 -27.42379 153.28147 17406 ft 384 kts 221°
2026-04-16 04:57 -27.44473 153.26275 17405 ft 384 kts 221°
2026-04-16 04:57 -27.46564 153.24406 17403 ft 384 kts 221°
2026-04-16 04:57 -27.48652 153.22539 17403 ft 384 kts 221°
2026-04-16 04:57 -27.50737 153.20674 17406 ft 384 kts 221°
2026-04-16 04:58 -27.52809 153.18773 17403 ft 382 kts 225°
2026-04-16 04:58 -27.54520 153.16505 17402 ft 379 kts 236°
2026-04-16 04:58 -27.56084 153.14112 17406 ft 379 kts 235°
2026-04-16 04:58 -27.57663 153.11719 17408 ft 380 kts 235°
2026-04-16 04:59 -27.59245 153.09331 17406 ft 380 kts 235°
2026-04-16 04:59 -27.60829 153.06946 17406 ft 380 kts 235°
2026-04-16 04:59 -27.62417 153.04559 17400 ft 380 kts 235°
2026-04-16 04:59 -27.64005 153.02173 17401 ft 381 kts 235°
2026-04-16 05:00 -27.65593 152.99786 17391 ft 381 kts 235°
2026-04-16 05:00 -27.67185 152.97396 17385 ft 381 kts 235°
2026-04-16 05:00 -27.68775 152.95009 17377 ft 380 kts 235°
2026-04-16 05:00 -27.70367 152.92622 17377 ft 380 kts 235°
2026-04-16 05:01 -27.71788 152.90135 17364 ft 376 kts 250°
2026-04-16 05:01 -27.72172 152.87240 17360 ft 374 kts 265°
2026-04-16 05:01 -27.72396 152.84310 17305 ft 376 kts 265°
2026-04-16 05:01 -27.72612 152.81402 17276 ft 376 kts 266°
2026-04-16 05:02 -27.72445 152.78427 17327 ft 375 kts 279°
2026-04-16 05:02 -27.71951 152.75585 17433 ft 372 kts 281°
2026-04-16 05:02 -27.71407 152.72761 17741 ft 365 kts 282°
2026-04-16 05:02 -27.70650 152.70013 17587 ft 373 kts 289°
2026-04-16 05:03 -27.69560 152.67298 17287 ft 382 kts 294°
2026-04-16 05:03 -27.68559 152.64535 17408 ft 377 kts 287°
2026-04-16 05:03 -27.67921 152.61716 17778 ft 367 kts 280°
2026-04-16 05:04 -27.66853 152.56146 18095 ft 366 kts 287°
2026-04-16 05:04 -27.65855 152.53466 17897 ft 375 kts 295°
2026-04-16 05:04 -27.64539 152.50910 17774 ft 380 kts 301°
2026-04-16 05:04 -27.63319 152.48280 17417 ft 382 kts 284°
2026-04-16 05:05 -27.63440 152.45204 15451 ft 418 kts 252°
2026-04-16 05:05 -27.65183 152.42447 13795 ft 450 kts 221°
2026-04-16 05:05 -27.67968 152.41032 13961 ft 430 kts 193°
2026-04-16 05:05 -27.70805 152.41238 15067 ft 399 kts 167°
2026-04-16 05:06 -27.73186 152.42748 15565 ft 399 kts 142°
2026-04-16 05:06 -27.74059 152.43806 15384 ft 409 kts 130°
2026-04-16 05:06 -27.74813 152.45144 15009 ft 422 kts 121°
2026-04-16 05:06 -27.76080 152.48171 14768 ft 428 kts 113°
2026-04-16 05:07 -27.76921 152.51383 14661 ft 423 kts 103°
2026-04-16 05:07 -27.77384 152.54590 13866 ft 408 kts 97°
2026-04-16 05:07 -27.77574 152.57756 12763 ft 401 kts 92°
2026-04-16 05:07 -27.77597 152.60841 11291 ft 366 kts 90°
2026-04-16 05:08 -27.77601 152.63433 10462 ft 303 kts 90°
2026-04-16 05:08 -27.77604 152.65708 9335 ft 278 kts 90°
2026-04-16 05:08 -27.77702 152.67819 8354 ft 258 kts 97°
2026-04-16 05:08 -27.78025 152.69773 7207 ft 250 kts 103°
2026-04-16 05:09 -27.78379 152.71721 5955 ft 253 kts 98°
2026-04-16 05:09 -27.77953 152.73514 4891 ft 239 kts 46°
2026-04-16 05:09 -27.76590 152.74470 4036 ft 226 kts 25°
2026-04-16 05:09 -27.75151 152.75175 3356 ft 231 kts 20°
2026-04-16 05:10 -27.73561 152.75549 2755 ft 237 kts 358°
2026-04-16 05:10 -27.71865 152.75057 2419 ft 273 kts 342°
2026-04-16 05:10 -27.70009 152.74246 2242 ft 293 kts 338°
2026-04-16 05:10 -27.68101 152.73341 1640 ft 303 kts 338°
2026-04-16 05:11 -27.66171 152.72474 981 ft 292 kts 339°
2026-04-16 05:11 -27.64353 152.71725 796 ft 266 kts 339°
2026-04-16 05:11 -27.63155 152.70521 874 ft 244 kts 269°
2026-04-16 05:11 -27.64429 152.69611 1324 ft 252 kts 167°
2026-04-16 05:12 -27.65902 152.70155 1373 ft 208 kts 160°
2026-04-16 05:12 -27.67080 152.70874 1129 ft 168 kts 123°
2026-04-16 05:12 -27.66939 152.71660 731 ft 114 kts 22°
2026-04-16 05:12 -27.65565 152.71943 963 ft 310 kts 346°
2026-04-16 05:13 -27.62965 152.70843 2489 ft 500 kts 338°
2026-04-16 05:13 -27.59988 152.68530 5440 ft 508 kts 292°
2026-04-16 05:13 -27.59939 152.64915 7284 ft 427 kts 246°
2026-04-16 05:13 -27.62195 152.63341 8037 ft 383 kts 185°
2026-04-16 05:14 -27.64478 152.64387 7702 ft 338 kts 152°
2026-04-16 05:14 -27.65775 152.65257 7306 ft 324 kts 149°
2026-04-16 05:14 -27.67625 152.66628 6577 ft 312 kts 147°
2026-04-16 05:14 -27.69417 152.68013 5127 ft 312 kts 145°
2026-04-16 05:15 -27.71158 152.69404 3860 ft 306 kts 143°
2026-04-16 05:15 -27.72780 152.70869 2892 ft 286 kts 132°
2026-04-16 05:15 -27.73344 152.72770 2531 ft 242 kts 82°
2026-04-16 05:15 -27.72607 152.74295 2137 ft 214 kts 40°
2026-04-16 05:16 -27.71282 152.74710 1788 ft 198 kts 349°
2026-04-16 05:16 -27.70834 152.74541 1791 ft 193 kts 338°
2026-04-16 05:18 -27.70093 152.74191 1703 ft 225 kts 340°
2026-04-16 05:18 -27.68341 152.73398 1594 ft 312 kts 339°
2026-04-16 05:19 -27.66156 152.72438 1182 ft 348 kts 340°
2026-04-16 05:19 -27.64012 152.71607 727 ft 302 kts 341°
2026-04-16 05:19 -27.62732 152.70126 1004 ft 290 kts 270°
2026-04-16 05:19 -27.64138 152.68944 1278 ft 281 kts 168°
2026-04-16 05:20 -27.65709 152.69547 1417 ft 206 kts 156°
2026-04-16 05:20 -27.66721 152.70431 1346 ft 158 kts 116°
2026-04-16 05:20 -27.66762 152.71528 967 ft 145 kts 65°
2026-04-16 05:20 -27.65835 152.72109 628 ft 189 kts 346°
2026-04-16 05:21 -27.64530 152.71547 347 ft 241 kts 340°
2026-04-16 05:21 -27.62337 152.70577 1162 ft 408 kts 339°
2026-04-16 05:21 -27.59844 152.69015 2421 ft 420 kts 313°
2026-04-16 05:21 -27.59908 152.66151 3776 ft 383 kts 224°
2026-04-16 05:22 -27.62379 152.65853 3630 ft 382 kts 163°
2026-04-16 05:22 -27.64901 152.66995 2798 ft 400 kts 155°
2026-04-16 05:22 -27.67364 152.68435 2549 ft 395 kts 150°
2026-04-16 05:22 -27.69700 152.69946 2095 ft 376 kts 148°
2026-04-16 05:23 -27.71520 152.71822 2270 ft 333 kts 116°
2026-04-16 05:23 -27.71479 152.73971 1967 ft 264 kts 41°
2026-04-16 05:23 -27.69849 152.73932 1495 ft 232 kts 346°
2026-04-16 05:23 -27.68369 152.73388 1292 ft 220 kts 342°
2026-04-16 05:24 -27.66918 152.72765 1054 ft 226 kts 340°
2026-04-16 05:24 -27.65343 152.72103 935 ft 268 kts 339°
2026-04-16 05:24 -27.63499 152.71296 849 ft 294 kts 334°
2026-04-16 05:24 -27.63422 152.69337 849 ft 318 kts 217°
2026-04-16 05:25 -27.65087 152.69871 824 ft 237 kts 141°
2026-04-16 05:25 -27.66125 152.70977 662 ft 173 kts 112°
2026-04-16 05:25 -27.65863 152.71933 431 ft 126 kts 25°
2026-04-16 05:25 -27.65052 152.71759 196 ft 119 kts 345°
2026-04-16 05:26 -27.64321 152.71456 99 ft 103 kts 341°
2026-04-16 05:26 -27.63747 152.71229 100 ft 64 kts 339°
2026-04-16 05:26 -27.63433 152.71074 94 ft 31 kts 314°
2026-04-16 05:26 -27.63378 152.70907 94 ft 11 kts 284°
2026-04-16 05:27 -27.63377 152.70903 93 ft 4 kts 283°
2026-04-16 05:27 -27.63373 152.70885 96 ft 3 kts 286°
2026-04-16 05:27 -27.63363 152.70847 96 ft 0 kts 293°
2026-04-16 05:28 -27.63250 152.70786 96 ft 27 kts 338°
2026-04-16 05:28 -27.63088 152.70714 95 ft 23 kts 339°
2026-04-16 05:28 -27.62967 152.70643 97 ft 16 kts 284°
2026-04-16 05:29 -27.62992 152.70541 98 ft 5 kts 256°
2026-04-16 05:29 -27.63016 152.70541 98 ft 9 kts 122°
2026-04-16 05:29 -27.63027 152.70560 98 ft 0 kts 123°